This is the latest recevied weather packets stored in our database for station/object M0JUI-1. If no packets are shown the sender has not sent any weather packets the latest 10 day(s).
| Time | Temp. | Humidity | Pressure | Rain* | Wind** | Luminosity | Snow |
|---|---|---|---|---|---|---|---|
| 1788072201 | 14.44° C | 32% | 1007.9 hPa | 0 mm | - | 46 W/m² | - |
| 1788071901 | 14.44° C | 32% | 1007.8 hPa | 0 mm | - | 43 W/m² | - |
| 1788071600 | 14.44° C | 32% | 1007.7 hPa | 0 mm | - | 34 W/m² | - |
| 1788071288 | 14.44° C | 32% | 1007.9 hPa | 0 mm | - | 30 W/m² | - |
| 1788070988 | 14.44° C | 32% | 1007.8 hPa | 0 mm | - | 24 W/m² | - |
| 1788070688 | 14.44° C | 32% | 1007.8 hPa | 0 mm | - | 19 W/m² | - |
| 1788070376 | 14.44° C | 32% | 1007.6 hPa | 0 mm | - | 16 W/m² | - |
| 1788070077 | 14.44° C | 32% | 1007.7 hPa | 0 mm | - | 16 W/m² | - |
| 1788069776 | 14.44° C | 32% | 1007.8 hPa | 0 mm | - | 16 W/m² | - |
| 1788069476 | 14.44° C | 32% | 1007.7 hPa | 0 mm | - | 12 W/m² | - |
| 1788069176 | 14.44° C | 32% | 1007.6 hPa | 0 mm | - | 9 W/m² | - |
| 1788068876 | 14.44° C | 32% | 1007.5 hPa | 0 mm | - | 4 W/m² | - |
| 1788068577 | 14.44° C | 32% | 1007.6 hPa | 0 mm | - | 3 W/m² | - |
| 1788068276 | 14.44° C | 32% | 1007.5 hPa | 0 mm | - | 3 W/m² | - |
| 1788067976 | 14.44° C | 32% | 1007.6 hPa | 0 mm | - | 3 W/m² | - |
| 1788067677 | 14.44° C | 32% | 1007.4 hPa | 0 mm | - | 2 W/m² | - |
| 1788067376 | 14.44° C | 32% | 1007.6 hPa | 0 mm | - | 0 W/m² | - |
| 1788067064 | 14.44° C | 32% | 1007.6 hPa | 0 mm | - | 0 W/m² | - |
| 1788066764 | 15° C | 32% | 1007.5 hPa | 0 mm | - | 0 W/m² | - |
| 1788066464 | 14.44° C | 32% | 1007.6 hPa | 0 mm | - | 0 W/m² | - |
| 1788066152 | 14.44° C | 32% | 1007.5 hPa | 0 mm | - | 0 W/m² | - |
| 1788065852 | 14.44° C | 32% | 1007.5 hPa | 0 mm | - | 0 W/m² | - |
| 1788065552 | 14.44° C | 32% | 1007.5 hPa | 0 mm | - | 0 W/m² | - |
| 1788065252 | 14.44° C | 32% | 1007.5 hPa | 0 mm | - | 0 W/m² | - |
| 1788064952 | 14.44° C | 32% | 1007.5 hPa | 0 mm | - | 0 W/m² | - |
* Rain latest hour (hover to see other rain measurements)
** Current wind speed in m/s (hover to see current wind gust speed)